Tracking 22223 objects as of 26-Jan-2021
HD Live streaming from Space Station
objects crossing your sky now

WESTFORD NEEDLES

Track WESTFORD NEEDLES now!
10-day predictions
WESTFORD NEEDLES is classified as:


NORAD ID: 5702
Int'l Code: 1963-014CU
Perigee: 2,006.9 km
Apogee: 5,183.1 km
Inclination: 86.6 °
Period: 165.0 minutes
Semi major axis: 9965 km
RCS: 0.1919 m2 (medium)
Launch date: May 9, 1963
Source: United States (US)
Launch site: AIR FORCE WESTERN TEST RANGE (AFWTR)
aabbcc
Your satellite tracking list
Your tracking list is empty




NASA's NSSDC Master Catalog

Two Line Element Set (TLE):
1 05702U 63014CU  21025.55794373 -.00002515  00000-0 -30543+0 0  9990
2 05702  86.5695 347.0752 1593528 188.2026 168.9571  8.72617910254990
Source of the keplerian elements: AFSPC